This is the latest recevied weather packets stored in our database for station/object EA1IOK-13. If no packets are shown the sender has not sent any weather packets the latest 10 day(s).
| Time | Temp. | Humidity | Pressure | Rain* | Wind** | Luminosity | Snow |
|---|---|---|---|---|---|---|---|
| 1777991749 | 15° C | 74% | 1014.7 hPa | 0 mm | - | - | - |
| 1777989949 | 14.44° C | 76% | 1015 hPa | 0 mm | - | - | - |
| 1777989092 | 14.44° C | 76% | 1014.9 hPa | 0.25 mm | - | - | - |
| 1777989050 | 14.44° C | 76% | 1014.9 hPa | 0.25 mm | - | - | - |
| 1777985449 | 13.33° C | 91% | 1015 hPa | 0 mm | - | - | - |
| 1777982749 | 12.22° C | 87% | 1015.1 hPa | 0.25 mm | - | - | - |
| 1777981896 | 12.22° C | 89% | 1015.3 hPa | 0.25 mm | - | - | - |
| 1777981853 | 12.22° C | 89% | 1015.3 hPa | 0.25 mm | - | - | - |
| 1777980963 | 11.11° C | 89% | 1015.4 hPa | 0.51 mm | - | - | - |
| 1777980049 | 12.22° C | 89% | 1015.4 hPa | 0.25 mm | - | - | - |
| 1777979195 | 11.67° C | 91% | 1015.4 hPa | 0.25 mm | - | - | - |
| 1777979151 | 11.67° C | 91% | 1015.4 hPa | 0.25 mm | - | - | - |
| 1777978295 | 11.11° C | 89% | 1015.5 hPa | 0.25 mm | - | - | - |
| 1777978250 | 11.11° C | 89% | 1015.5 hPa | 0.25 mm | - | - | - |
| 1777977403 | 11.11° C | 90% | 1015.7 hPa | 0 mm | - | - | - |
| 1777977350 | 11.11° C | 90% | 1015.7 hPa | 0 mm | - | - | - |
| 1777975583 | 10.56° C | 95% | 1015.5 hPa | 0 mm | - | - | - |
| 1777975551 | 10.56° C | 95% | 1015.5 hPa | 0 mm | - | - | - |
| 1777974693 | 10° C | 96% | 1015.6 hPa | 0 mm | - | - | - |
| 1777974650 | 10° C | 96% | 1015.6 hPa | 0 mm | - | - | - |
| 1777973804 | 10° C | 96% | 1015.5 hPa | 0 mm | - | - | - |
| 1777973750 | 10° C | 96% | 1015.5 hPa | 0 mm | - | - | - |
| 1777971949 | 9.44° C | 98% | 1015.5 hPa | 0 mm | - | - | - |
| 1777971051 | 9.44° C | 98% | 1015.6 hPa | 0 mm | - | - | - |
| 1777970194 | 9.44° C | 99% | 1015.6 hPa | 0 mm | - | - | - |
* Rain latest hour (hover to see other rain measurements)
** Current wind speed in m/s (hover to see current wind gust speed)